Regional Weather Roundup
Issued by NWS

Home | Current Version | Previous Version | Text Only | Print | Product List | Glossary On
Versions: 1 2 3 4 5 6 7 8 9 10 11 12 13 14 15 16 17 18 19 20 21 22 23 24 25 26 27
000
ASUS44 KBMX 231910
RWRAL

ALABAMA REGIONAL WEATHER ROUNDUP
NATIONAL WEATHER SERVICE BIRMINGHAM AL
200 PM CDT MON APR 23 2018

NOTE: "FAIR" INDICATES FEW OR NO CLOUDS BELOW 12,000 FEET
WITH NO SIGNIFICANT WEATHER AND/OR OBSTRUCTIONS TO VISIBILITY.

THE REMARK "TC" DENOTES TEMPERATURE IN DEGREES CELSIUS.

ALZ001>011-014-016>018-020-232000-
NORTH ALABAMA

CITY           SKY/WX    TMP DP  RH WIND       PRES   REMARKS
MUSCLE SHOALS  FAIR      70  55  59 MISG      29.88F
HUNTSVILLE     LGT RAIN  65  60  84 SE6       29.90S
DECATUR        LGT RAIN  66  57  72 SE8       29.90S
HALEYVILLE     CLOUDY    66  55  67 SW10      29.90F
GADSDEN        PTSUNNY   72  56  57 SE9       29.88F
$$

ALZ012-013-022-023-030>036-040>044-232000-
WEST CENTRAL ALABAMA

CITY           SKY/WX    TMP DP  RH WIND       PRES   REMARKS
TUSCALOOSA     PTSUNNY   70  58  65 S13       29.90F
DEMOPOLIS      CLOUDY    68  52  56 SW8       29.91F
$$

ALZ015-024>026-033>036-041>044-232000-
CENTRAL ALABAMA

CITY           SKY/WX    TMP DP  RH WIND       PRES   REMARKS
BIRMINGHAM     LGT RAIN  63  60  90 E5        29.92F
MONTGOMERY     FAIR      76  61  59 W9G18     29.88F
SHELBY CO ARPT PTSUNNY   66  62  87 W5        29.89F
MAXWELL AFB    NOT AVBL
GREENVILLE     PTSUNNY   74  56  53 W12G20    29.88F
SELMA          FAIR      72  59  64 SW12G17   29.90F
PRATTVILLE     MOCLDY    72  60  64 W9        29.88F
BESSEMER       MOCLDY    70  57  63 SW12G20   29.90F
TALLADEGA      CLOUDY    72  58  61 W6        29.88F
PELL CITY      MOCLDY    70  61  73 VRB6G12   29.89S
MARION         MOCLDY    66  55  67 SW8       29.91F
SYLACAUGA      CLOUDY    72  59  63 SW9       29.88F
$$

ALZ019-021-028-029-037-038-045>048-232000-
EAST CENTRAL ALABAMA

CITY           SKY/WX    TMP DP  RH WIND       PRES   REMARKS
ANNISTON       FAIR      75  59  57 W8        29.87F
ALEXANDER CITY FAIR      73  62  68 S9        29.89F
AUBURN         FAIR      77  57  50 S9G17     29.89F
$$

ALZ051>064-232000-
SOUTHWEST ALABAMA

CITY           SKY/WX    TMP DP  RH WIND       PRES   REMARKS
MOBILE         PTSUNNY   72  52  49 W10G17    29.94F
BROOKLEY FIELD FAIR      75  52  44 SW9       29.94F
EVERGREEN      FAIR      73  57  57 SW10      29.91F
$$

ALZ049-050-065>069-232000-
SOUTHEAST ALABAMA

CITY           SKY/WX    TMP DP  RH WIND       PRES   REMARKS
DOTHAN         FAIR      81  55  40 SW17G26   29.91F
OZARK          NOT AVBL
TROY           PTSUNNY   76  60  57 SW10      29.88F
EUFAULA        PTSUNNY   82  64  54 S7        29.86F
$$




USA.gov is the U.S. government's official web portal to all federal, state and local government web resources and services.